Keahole Point, HI

10:59 PM HST on November 20, 2017 (GMT -1000)
Kona International At Keahole

Weather History for PHKO - November, 2011

Change the Weather History Date:

Tuesday, November 8, 2011

  Actual Average Record
Temperature  
Mean Temperature 80 °F -  
Max Temperature 84 °F 82 °F 90 °F (1982)
Min Temperature 75 °F 71 °F 69 °F (1983)
Cooling Degree Days 14    
Growing Degree Days 30 (Base 50)    
Moisture  
Dew Point 66 °F    
Average Humidity 66    
Maximum Humidity 79    
Minimum Humidity 50    
Precipitation  
Precipitation 0.00 in - - ()
Sea Level Pressure  
Sea Level Pressure 30.01 in    
Wind  
Wind Speed 6 mph (SSE)    
Max Wind Speed 13 mph    
Max Gust Speed -    
Visibility 10 miles    
Events      
Averages and records for this station are not official NWS values.
T = Trace of Precipitation, MM = Missing Value Source: NWS Daily Summary

Daily Weather History Graph

Daily Weather History Graph

Search for Another Location

Airport or City:

Trip Planner

Search our weather history database for the weather conditions in past years. The results will help you decide how hot, cold, wet, or windy it might be!

Date:

Astronomy

Nov. 08, 2011 Rise Set
Actual Time 6:28 AM HST 5:46 PM HST
Civil Twilight 6:05 AM HST 6:09 PM HST
Nautical Twilight 5:39 AM HST 6:36 PM HST
Astronomical Twilight 5:13 AM HST 7:02 PM HST
Moon 4:28 PM HST (11/8) 4:45 AM HST (11/8)
Length of Visible Light 12h 03m
Length of Day
11h 18m
Waxing Gibbous, 97% of the Moon is Illuminated
Nov 8
Waxing Gibbous
Nov 10
Full
Nov 18
Last Quarter
Nov 24
New
Dec 1
First Quarter

Hourly Weather History & Observations

Time (HST) Temp. Heat Index Dew Point Humidity Pressure Visibility Wind Dir Wind Speed Gust Speed Precip Events Conditions
12:10 AM 77.0 °F - 66.2 °F 69% 30.01 in 10.0 mi ESE 4.6 mph - N/A   Overcast
12:53 AM 77.0 °F - 66.0 °F 69% 30.00 in 10.0 mi South 8.1 mph - N/A   Clear
1:28 AM 78.8 °F - 68.0 °F 69% 30.00 in 10.0 mi SE 5.8 mph - N/A   Mostly Cloudy
1:53 AM 77.0 °F - 66.0 °F 69% 30.00 in 10.0 mi SE 5.8 mph - N/A   Overcast
2:30 AM 77.0 °F - 68.0 °F 74% 29.98 in 10.0 mi SSE 6.9 mph - N/A   Mostly Cloudy
2:53 AM 75.9 °F - 69.1 °F 79% 29.98 in 10.0 mi SE 6.9 mph - N/A   Overcast
3:53 AM 75.9 °F - 66.9 °F 74% 29.98 in 10.0 mi ESE 8.1 mph - N/A   Partly Cloudy
4:53 AM 75.0 °F - 66.9 °F 76% 29.98 in 10.0 mi ESE 6.9 mph - N/A   Scattered Clouds
5:53 AM 75.0 °F - 66.9 °F 76% 29.99 in 10.0 mi NE 3.5 mph - N/A   Overcast
6:25 AM 75.2 °F - 64.4 °F 69% 30.00 in 10.0 mi ENE 6.9 mph - N/A   Mostly Cloudy
6:53 AM 75.0 °F - 64.0 °F 69% 30.01 in 10.0 mi East 4.6 mph - N/A   Mostly Cloudy
7:00 AM 75.2 °F - 64.4 °F 69% 30.01 in 10.0 mi ESE 3.5 mph - N/A   Scattered Clouds
7:53 AM 77.0 °F - 66.9 °F 71% 30.03 in 10.0 mi SE 4.6 mph - N/A   Partly Cloudy
8:53 AM 80.1 °F 82.7 °F 68.0 °F 67% 30.04 in 10.0 mi South 6.9 mph - N/A   Partly Cloudy
9:53 AM 81.0 °F 83.8 °F 68.0 °F 65% 30.06 in 10.0 mi South 6.9 mph - N/A   Partly Cloudy
10:53 AM 82.9 °F 85.8 °F 68.0 °F 60% 30.05 in 10.0 mi WSW 8.1 mph - N/A   Clear
11:53 AM 81.0 °F 83.8 °F 68.0 °F 65% 30.02 in 10.0 mi West 5.8 mph - N/A   Partly Cloudy
12:53 PM 82.0 °F 84.9 °F 68.0 °F 62% 29.99 in 10.0 mi WSW 6.9 mph - N/A   Scattered Clouds
1:53 PM 84.0 °F 85.8 °F 64.9 °F 53% 29.97 in 10.0 mi WSW 10.4 mph - N/A   Scattered Clouds
2:53 PM 82.9 °F 85.8 °F 68.0 °F 60% 29.97 in 10.0 mi SSW 9.2 mph - N/A   Partly Cloudy
3:53 PM 82.0 °F 84.9 °F 68.0 °F 62% 29.96 in 10.0 mi West 8.1 mph - N/A   Clear
4:53 PM 81.0 °F 83.3 °F 66.9 °F 62% 29.96 in 10.0 mi SSW 8.1 mph - N/A   Clear
5:53 PM 80.1 °F 82.7 °F 68.0 °F 67% 30.00 in 10.0 mi SSW 6.9 mph - N/A   Overcast
6:53 PM 79.0 °F - 68.0 °F 69% 30.01 in 10.0 mi SW 4.6 mph - N/A   Mostly Cloudy
7:53 PM 79.0 °F - 68.0 °F 69% 30.03 in 10.0 mi SSW 8.1 mph - N/A   Partly Cloudy
8:53 PM 78.1 °F - 68.0 °F 71% 30.05 in 10.0 mi Calm Calm - N/A   Mostly Cloudy
9:03 PM 78.8 °F - 66.2 °F 65% 30.05 in 10.0 mi North 9.2 mph - N/A   Overcast
9:18 PM 78.8 °F - 59.0 °F 51% 30.04 in 10.0 mi NE 11.5 mph - N/A   Mostly Cloudy
9:53 PM 78.1 °F - 57.9 °F 50% 30.03 in 10.0 mi NE 12.7 mph - N/A   Partly Cloudy
10:53 PM 75.9 °F - 59.0 °F 56% 30.02 in 10.0 mi NE 9.2 mph - N/A   Clear
11:53 PM 75.9 °F - 66.0 °F 71% 30.03 in 10.0 mi NE 3.5 mph - N/A   Partly Cloudy